Weather History for Ainsworth, NE

Change the Weather History Date:

Sunday, November 24, 2013

  Actual Average Record
Temperature  
Mean Temperature 29 °F -  
Max Temperature 41 °F 42 °F 73 °F (2011)
Min Temperature 17 °F 23 °F 0 °F (1996)
Degree Days  
Heating Degree Days 36    
Moisture  
Dew Point 21 °F    
Average Humidity 73    
Maximum Humidity 83    
Minimum Humidity 58    
Precipitation  
Precipitation 0.00 in - - ()
Sea Level Pressure  
Sea Level Pressure 30.16 in    
Wind  
Wind Speed 15 mph (SSW)    
Max Wind Speed 25 mph    
Max Gust Speed 32 mph    
Visibility 10 miles    
Events      
Averages and records for this station are not official NWS values.
T = Trace of Precipitation, MM = Missing Value Source: NWS Daily Summary

Daily Weather History Graph

Daily Weather History Graph

Search for Another Location

Airport:

Trip Planner

Search our weather history database for the weather conditions in past years. The results will help you decide how hot, cold, wet, or windy it might be!

Date:

Astronomy

Nov. 24, 2013 Rise Set
Actual Time 7:42 AM CST 5:10 PM CST
Civil Twilight 7:11 AM CST 5:41 PM CST
Nautical Twilight 6:36 AM CST 6:16 PM CST
Astronomical Twilight 6:03 AM CST 6:50 PM CST
Moon 11:42 PM CST (11/24) 12:27 PM CST (11/24)
Length of Visible Light 10h 30m
Length of Day
9h 27m
Waning Gibbous, 60% of the Moon is Illuminated
Nov 24
Waning Gibbous
Nov 25
Last Quarter
Dec 2
New
Dec 9
First Quarter
Dec 17
Full

Hourly Weather History & Observations

Time (CST) Temp. Windchill Dew Point Humidity Pressure Visibility Wind Dir Wind Speed Gust Speed Precip Events Conditions
12:15 AM 19.9 °F 7.3 °F 14.9 °F 81% 30.46 in 10.0 mi SSW 12.7 mph - N/A   Clear
12:35 AM 20.1 °F 7.5 °F 14.9 °F 80% 30.45 in 10.0 mi SSW 12.7 mph - N/A   Clear
12:55 AM 19.8 °F 7.7 °F 14.5 °F 80% 30.44 in 10.0 mi SSW 11.5 mph - N/A   Clear
1:15 AM 19.0 °F 7.5 °F 14.0 °F 81% 30.44 in 10.0 mi SSW 10.4 mph - N/A   Clear
1:35 AM 18.5 °F 6.1 °F 13.8 °F 82% 30.43 in 10.0 mi SSW 11.5 mph - N/A   Clear
1:55 AM 18.5 °F 6.1 °F 13.6 °F 81% 30.42 in 10.0 mi South 11.5 mph - N/A   Clear
2:15 AM 18.3 °F 5.9 °F 13.5 °F 81% 30.41 in 10.0 mi South 11.5 mph - N/A   Clear
2:35 AM 18.5 °F 5.5 °F 13.3 °F 80% 30.40 in 10.0 mi SSW 12.7 mph - N/A   Clear
2:55 AM 18.7 °F 5.1 °F 13.3 °F 79% 30.39 in 10.0 mi SSW 13.8 mph - N/A   Clear
3:15 AM 19.2 °F 5.8 °F 13.5 °F 78% 30.38 in 10.0 mi SSW 13.8 mph 19.6 mph N/A   Clear
3:35 AM 19.4 °F 4.1 °F 13.6 °F 78% 30.37 in 10.0 mi SSW 18.4 mph - N/A   Clear
3:55 AM 19.2 °F 4.3 °F 13.5 °F 78% 30.36 in 10.0 mi SSW 17.3 mph - N/A   Clear
4:15 AM 18.9 °F 3.8 °F 13.1 °F 78% 30.35 in 10.0 mi SSW 17.3 mph - N/A   Clear
4:35 AM 18.9 °F 5.3 °F 13.1 °F 78% 30.34 in 10.0 mi SSW 13.8 mph 20.7 mph N/A   Clear
4:55 AM 19.0 °F 5.6 °F 13.1 °F 78% 30.34 in 10.0 mi SSW 13.8 mph 18.4 mph N/A   Clear
5:15 AM 18.5 °F 4.3 °F 13.1 °F 79% 30.33 in 10.0 mi South 15.0 mph - N/A   Clear
5:35 AM 18.5 °F 3.8 °F 13.1 °F 79% 30.32 in 10.0 mi SSW 16.1 mph - N/A   Clear
5:55 AM 18.5 °F 3.3 °F 13.1 °F 79% 30.31 in 10.0 mi SSW 17.3 mph 23.0 mph N/A   Clear
6:15 AM 18.0 °F 2.6 °F 12.7 °F 80% 30.31 in 10.0 mi SSW 17.3 mph 20.7 mph N/A   Clear
6:35 AM 17.6 °F 2.2 °F 12.7 °F 81% 30.30 in 10.0 mi SSW 17.3 mph - N/A   Clear
6:55 AM 17.6 °F 2.2 °F 12.6 °F 81% 30.29 in 10.0 mi SSW 17.3 mph - N/A   Clear
7:15 AM 17.6 °F 2.7 °F 12.7 °F 81% 30.29 in 10.0 mi South 16.1 mph 21.9 mph N/A   Clear
7:35 AM 17.6 °F 3.2 °F 12.7 °F 81% 30.28 in 10.0 mi SSW 15.0 mph - N/A   Clear
7:55 AM 17.6 °F 2.2 °F 12.7 °F 81% 30.27 in 10.0 mi South 17.3 mph - N/A   Clear
8:15 AM 18.5 °F 3.3 °F 13.1 °F 79% 30.26 in 10.0 mi SSW 17.3 mph - N/A   Clear
8:35 AM 19.8 °F 5.0 °F 14.0 °F 78% 30.25 in 10.0 mi South 17.3 mph 25.3 mph N/A   Clear
8:55 AM 21.0 °F 7.1 °F 14.7 °F 77% 30.25 in 10.0 mi SSW 16.1 mph - N/A   Clear
9:15 AM 22.8 °F 8.5 °F 15.6 °F 74% 30.24 in 10.0 mi SSW 18.4 mph 24.2 mph N/A   Clear
9:35 AM 25.2 °F 11.2 °F 16.9 °F 71% 30.23 in 10.0 mi SSW 19.6 mph 23.0 mph N/A   Clear
9:55 AM 27.3 °F 14.8 °F 18.3 °F 69% 30.22 in 10.0 mi SSW 17.3 mph 24.2 mph N/A   Clear
10:15 AM 29.3 °F 16.6 °F 19.2 °F 66% 30.21 in 10.0 mi SSW 19.6 mph 27.6 mph N/A   Clear
10:35 AM 31.3 °F 19.9 °F 20.3 °F 64% 30.21 in 10.0 mi SSW 17.3 mph 26.5 mph N/A   Clear
10:55 AM 32.5 °F 19.4 °F 20.3 °F 61% 30.20 in 10.0 mi SSW 25.3 mph 31.1 mph N/A   Clear
11:15 AM 33.8 °F 21.9 °F 21.7 °F 61% 30.18 in 10.0 mi SSW 21.9 mph 28.8 mph N/A   Clear
11:35 AM 35.1 °F 23.5 °F 22.8 °F 61% 30.17 in 10.0 mi SSW 21.9 mph 27.6 mph N/A   Clear
11:55 AM 37.2 °F 27.0 °F 24.8 °F 61% 30.15 in 10.0 mi SSW 19.6 mph 26.5 mph N/A   Clear
12:15 PM 38.3 °F 27.8 °F 25.5 °F 60% 30.14 in 10.0 mi SSW 21.9 mph 26.5 mph N/A   Clear
12:35 PM 39.2 °F 29.0 °F 26.1 °F 59% 30.12 in 10.0 mi SSW 21.9 mph 25.3 mph N/A   Clear
12:55 PM 39.2 °F 29.6 °F 26.1 °F 59% 30.11 in 10.0 mi SSW 19.6 mph 32.2 mph N/A   Clear
1:15 PM 39.4 °F 29.5 °F 26.8 °F 61% 30.10 in 10.0 mi SSW 20.7 mph 31.1 mph N/A   Clear
1:35 PM 39.7 °F 30.3 °F 27.0 °F 60% 30.09 in 10.0 mi SSW 19.6 mph 32.2 mph N/A   Clear
1:55 PM 40.1 °F 30.2 °F 27.5 °F 61% 30.07 in 10.0 mi SSW 21.9 mph 28.8 mph N/A   Clear
2:15 PM 40.3 °F 29.7 °F 27.9 °F 61% 30.05 in 10.0 mi SSW 25.3 mph 32.2 mph N/A   Clear
2:35 PM 40.5 °F 30.9 °F 28.6 °F 63% 30.04 in 10.0 mi SSW 20.7 mph 29.9 mph N/A   Clear
2:55 PM 41.2 °F 32.1 °F 29.1 °F 62% 30.03 in 10.0 mi SSW 19.6 mph 24.2 mph N/A   Clear
3:15 PM 41.4 °F 32.4 °F 29.7 °F 63% 30.02 in 10.0 mi SSW 19.6 mph 25.3 mph N/A   Clear
3:35 PM 41.2 °F 32.1 °F 29.7 °F 64% 30.02 in 10.0 mi SSW 19.6 mph 27.6 mph N/A   Clear
3:55 PM 41.9 °F 33.4 °F 29.3 °F 61% 30.02 in 10.0 mi SSW 18.4 mph 24.2 mph N/A   Clear
4:15 PM 41.4 °F 31.9 °F 27.7 °F 58% 30.02 in 10.0 mi SSW 21.9 mph 26.5 mph N/A   Clear
4:35 PM 40.3 °F 29.9 °F 26.8 °F 59% 30.02 in 10.0 mi SW 24.2 mph 29.9 mph N/A   Clear
4:55 PM 39.0 °F 30.3 °F 26.6 °F 61% 30.01 in 10.0 mi SSW 16.1 mph 24.2 mph N/A   Clear
5:15 PM 37.6 °F 27.7 °F 26.6 °F 65% 30.01 in 10.0 mi SSW 18.4 mph 23.0 mph N/A   Clear
5:35 PM 37.2 °F 27.3 °F 26.4 °F 65% 30.00 in 10.0 mi SSW 18.4 mph 26.5 mph N/A   Clear
5:55 PM 36.9 °F 27.5 °F 26.4 °F 66% 30.01 in 10.0 mi SSW 16.1 mph 24.2 mph N/A   Clear
6:15 PM 36.1 °F 25.9 °F 26.6 °F 68% 29.99 in 10.0 mi SSW 18.4 mph 21.9 mph N/A   Clear
6:35 PM 35.6 °F 26.6 °F 26.6 °F 70% 29.99 in 10.0 mi SSW 13.8 mph - N/A   Clear
6:55 PM 34.9 °F 26.6 °F 26.4 °F 71% 29.99 in 10.0 mi SSW 11.5 mph - N/A   Clear
7:15 PM 34.3 °F 26.5 °F 26.4 °F 73% 29.99 in 10.0 mi SW 10.4 mph - N/A   Clear
7:35 PM 33.1 °F 25.5 °F 26.2 °F 76% 29.98 in 10.0 mi SSW 9.2 mph - N/A   Clear
7:55 PM 32.5 °F 24.2 °F 26.4 °F 78% 29.98 in 10.0 mi SSW 10.4 mph - N/A   Clear
8:15 PM 32.0 °F 24.8 °F 26.6 °F 80% 29.99 in 10.0 mi SW 8.1 mph - N/A   Clear
8:35 PM 31.8 °F 25.4 °F 26.6 °F 81% 29.99 in 10.0 mi WSW 6.9 mph - N/A   Clear
8:55 PM 30.9 °F 24.3 °F 26.4 °F 83% 29.98 in 10.0 mi SW 6.9 mph - N/A   Clear
9:15 PM 31.1 °F 23.1 °F 26.6 °F 83% 29.98 in 10.0 mi SSW 9.2 mph - N/A   Clear
9:35 PM 31.6 °F 23.1 °F 26.6 °F 82% 29.98 in 10.0 mi SSW 10.4 mph - N/A   Clear
9:55 PM 31.6 °F 24.4 °F 26.4 °F 81% 29.98 in 10.0 mi SW 8.1 mph - N/A   Clear
10:15 PM 31.3 °F 23.3 °F 26.1 °F 81% 29.98 in 10.0 mi SW 9.2 mph - N/A   Clear
10:35 PM 32.0 °F 23.0 °F 25.7 °F 78% 29.98 in 10.0 mi SW 11.5 mph - N/A   Clear
10:55 PM 32.0 °F 23.0 °F 25.7 °F 78% 29.97 in 10.0 mi SW 11.5 mph - N/A   Clear
11:15 PM 32.5 °F 22.7 °F 25.7 °F 76% 29.97 in 10.0 mi SW 13.8 mph - N/A   Clear
11:35 PM 32.5 °F 22.3 °F 25.7 °F 76% 29.97 in 10.0 mi SW 15.0 mph - N/A   Clear
11:55 PM 32.0 °F 23.6 °F 25.3 °F 76% 29.98 in 10.0 mi SW 10.4 mph - N/A   Clear